Time,TemperatureF,DewpointF,PressureIn,WindDirection,WindDirectionDegrees,WindSpeedMPH,WindSpeedGustMPH,Humidity,HourlyPrecipIn,Conditions,Clouds,dailyrainin,SolarRadiationWatts/m^2,SoftwareType,DateUTC
2013-05-07 00:04:00,54.3,50.0,30.06,North,360,0.0,0.0,86,0.00,,,0.00,0,weatherlink.com 1.10,2013-05-07 05:04:00,
2013-05-07 00:19:00,53.8,50.0,30.06,North,360,0.0,0.0,88,0.00,,,0.00,0,weatherlink.com 1.10,2013-05-07 05:19:00,
2013-05-07 00:34:00,53.3,50.0,30.06,North,360,0.0,0.0,88,0.00,,,0.00,0,weatherlink.com 1.10,2013-05-07 05:34:00,
2013-05-07 00:49:00,52.7,50.0,30.06,North,360,0.0,0.0,89,0.00,,,0.00,0,weatherlink.com 1.10,2013-05-07 05:49:00,
2013-05-07 01:04:00,52.1,49.0,30.06,North,360,0.0,2.0,90,0.00,,,0.00,0,weatherlink.com 1.10,2013-05-07 06:04:00,
2013-05-07 01:19:00,51.9,49.0,30.06,North,360,0.0,1.0,90,0.00,,,0.00,0,weatherlink.com 1.10,2013-05-07 06:19:00,
2013-05-07 01:34:00,51.1,49.0,30.06,North,360,0.0,1.0,91,0.00,,,0.00,0,weatherlink.com 1.10,2013-05-07 06:34:00,
2013-05-07 01:49:00,50.6,48.0,30.05,North,360,0.0,0.0,91,0.00,,,0.00,0,weatherlink.com 1.10,2013-05-07 06:49:00,
2013-05-07 02:04:00,50.5,48.0,30.05,North,360,0.0,0.0,91,0.00,,,0.00,0,weatherlink.com 1.10,2013-05-07 07:04:00,
2013-05-07 02:19:00,50.3,48.0,30.04,North,360,0.0,0.0,91,0.00,,,0.00,0,weatherlink.com 1.10,2013-05-07 07:19:00,
2013-05-07 02:34:00,50.0,49.0,30.04,North,360,0.0,0.0,95,0.00,,,0.00,0,weatherlink.com 1.10,2013-05-07 07:34:00,
2013-05-07 02:49:00,49.8,48.0,30.03,North,360,0.0,1.0,92,0.00,,,0.00,0,weatherlink.com 1.10,2013-05-07 07:49:00,
2013-05-07 03:04:00,49.3,47.0,30.03,North,360,0.0,0.0,91,0.00,,,0.00,0,weatherlink.com 1.10,2013-05-07 08:04:00,
2013-05-07 03:20:00,48.7,46.0,30.03,North,360,0.0,0.0,91,0.00,,,0.00,0,weatherlink.com 1.10,2013-05-07 08:20:00,
2013-05-07 03:34:00,48.1,46.0,30.03,North,360,0.0,0.0,91,0.00,,,0.00,0,weatherlink.com 1.10,2013-05-07 08:34:00,
2013-05-07 03:49:00,47.8,46.0,30.03,North,360,0.0,0.0,92,0.00,,,0.00,0,weatherlink.com 1.10,2013-05-07 08:49:00,
2013-05-07 04:04:00,47.3,45.0,30.03,North,360,0.0,0.0,92,0.00,,,0.00,0,weatherlink.com 1.10,2013-05-07 09:04:00,
2013-05-07 04:19:00,47.0,45.0,30.03,North,360,0.0,0.0,92,0.00,,,0.00,0,weatherlink.com 1.10,2013-05-07 09:19:00,
2013-05-07 04:34:00,46.5,44.0,30.03,North,360,0.0,0.0,92,0.00,,,0.00,0,weatherlink.com 1.10,2013-05-07 09:34:00,
2013-05-07 04:50:00,46.1,44.0,30.03,North,360,0.0,0.0,92,0.00,,,0.00,0,weatherlink.com 1.10,2013-05-07 09:50:00,
2013-05-07 05:05:00,45.7,44.0,30.03,North,360,0.0,0.0,92,0.00,,,0.00,0,weatherlink.com 1.10,2013-05-07 10:05:00,
2013-05-07 05:20:00,45.3,43.0,30.03,North,360,0.0,2.0,92,0.00,,,0.00,0,weatherlink.com 1.10,2013-05-07 10:20:00,
2013-05-07 05:35:00,45.0,43.0,30.03,North,360,0.0,0.0,92,0.00,,,0.00,0,weatherlink.com 1.10,2013-05-07 10:35:00,
2013-05-07 05:50:00,44.6,43.0,30.04,North,360,0.0,1.0,92,0.00,,,0.00,0,weatherlink.com 1.10,2013-05-07 10:50:00,
2013-05-07 06:05:00,44.5,43.0,30.04,North,360,0.0,4.0,93,0.00,,,0.00,0,weatherlink.com 1.10,2013-05-07 11:05:00,
2013-05-07 06:20:00,44.5,43.0,30.05,North,360,0.0,0.0,93,0.00,,,0.00,5,weatherlink.com 1.10,2013-05-07 11:20:00,
2013-05-07 06:35:00,44.6,43.0,30.06,North,360,0.0,1.0,93,0.00,,,0.00,14,weatherlink.com 1.10,2013-05-07 11:35:00,
2013-05-07 06:50:00,44.9,43.0,30.05,North,360,0.0,2.0,94,0.00,,,0.00,33,weatherlink.com 1.10,2013-05-07 11:50:00,
2013-05-07 07:05:00,45.4,44.0,30.06,North,360,0.0,0.0,94,0.00,,,0.00,62,weatherlink.com 1.10,2013-05-07 12:05:00,
2013-05-07 07:20:00,46.0,44.0,30.07,North,360,0.0,1.0,94,0.00,,,0.00,81,weatherlink.com 1.10,2013-05-07 12:20:00,
2013-05-07 07:35:00,46.8,46.0,30.07,North,360,0.0,0.0,95,0.00,,,0.00,105,weatherlink.com 1.10,2013-05-07 12:35:00,
2013-05-07 07:50:00,47.8,47.0,30.08,North,360,0.0,1.0,95,0.00,,,0.00,132,weatherlink.com 1.10,2013-05-07 12:50:00,
2013-05-07 08:05:00,48.9,48.0,30.08,North,360,0.0,1.0,95,0.00,,,0.00,186,weatherlink.com 1.10,2013-05-07 13:05:00,
2013-05-07 08:20:00,50.1,49.0,30.08,North,360,0.0,1.0,95,0.00,,,0.00,192,weatherlink.com 1.10,2013-05-07 13:20:00,
2013-05-07 08:35:00,51.3,50.0,30.08,North,360,0.0,1.0,95,0.00,,,0.00,250,weatherlink.com 1.10,2013-05-07 13:35:00,
2013-05-07 08:50:00,52.1,51.0,30.08,North,360,0.0,2.0,95,0.00,,,0.00,329,weatherlink.com 1.10,2013-05-07 13:50:00,
2013-05-07 09:05:00,55.7,55.0,30.08,North,360,0.0,1.0,96,0.00,,,0.00,439,weatherlink.com 1.10,2013-05-07 14:05:00,
2013-05-07 09:20:00,58.5,57.0,30.09,North,360,0.0,2.0,94,0.00,,,0.00,483,weatherlink.com 1.10,2013-05-07 14:20:00,
2013-05-07 09:35:00,60.5,58.0,30.08,North,360,0.0,2.0,92,0.00,,,0.00,536,weatherlink.com 1.10,2013-05-07 14:35:00,
2013-05-07 09:50:00,61.0,57.0,30.08,North,360,0.0,1.0,87,0.00,,,0.00,522,weatherlink.com 1.10,2013-05-07 14:50:00,
2013-05-07 10:05:00,64.0,59.0,30.08,North,360,0.0,1.0,83,0.00,,,0.00,563,weatherlink.com 1.10,2013-05-07 15:05:00,
2013-05-07 10:20:00,65.0,59.0,30.07,North,360,0.0,1.0,80,0.00,,,0.00,612,weatherlink.com 1.10,2013-05-07 15:20:00,
2013-05-07 10:35:00,65.5,58.0,30.07,North,360,2.0,3.0,78,0.00,,,0.00,696,weatherlink.com 1.10,2013-05-07 15:35:00,
2013-05-07 10:51:00,66.1,58.0,30.07,North,360,0.0,3.0,76,0.00,,,0.00,731,weatherlink.com 1.10,2013-05-07 15:51:00,
2013-05-07 11:06:00,68.1,58.0,30.07,North,360,0.0,4.0,70,0.00,,,0.00,768,weatherlink.com 1.10,2013-05-07 16:06:00,
2013-05-07 11:21:00,68.2,58.0,30.07,North,360,3.0,4.0,70,0.00,,,0.00,805,weatherlink.com 1.10,2013-05-07 16:21:00,
2013-05-07 11:36:00,69.5,60.0,30.07,North,360,0.0,4.0,71,0.00,,,0.00,835,weatherlink.com 1.10,2013-05-07 16:36:00,
2013-05-07 11:51:00,70.8,59.0,30.07,North,360,0.0,5.0,67,0.00,,,0.00,782,weatherlink.com 1.10,2013-05-07 16:51:00,
2013-05-07 12:21:00,71.3,56.0,30.06,NNE,15,2.0,5.0,58,0.00,,,0.00,853,weatherlink.com 1.10,2013-05-07 17:21:00,
2013-05-07 12:36:00,72.3,56.0,30.06,NNE,13,1.0,5.0,57,0.00,,,0.00,856,weatherlink.com 1.10,2013-05-07 17:36:00,
2013-05-07 12:51:00,72.4,58.0,30.05,NNE,14,0.0,5.0,61,0.00,,,0.00,888,weatherlink.com 1.10,2013-05-07 17:51:00,
2013-05-07 13:06:00,73.1,54.0,30.04,NNE,19,3.0,6.0,52,0.00,,,0.00,932,weatherlink.com 1.10,2013-05-07 18:06:00,
2013-05-07 13:21:00,73.4,57.0,30.04,NNE,18,2.0,5.0,56,0.00,,,0.00,935,weatherlink.com 1.10,2013-05-07 18:21:00,
2013-05-07 13:36:00,73.1,56.0,30.04,SE,124,1.0,4.0,55,0.00,,,0.00,902,weatherlink.com 1.10,2013-05-07 18:36:00,
2013-05-07 13:51:00,73.9,55.0,30.03,SE,126,2.0,6.0,52,0.00,,,0.00,916,weatherlink.com 1.10,2013-05-07 18:51:00,
2013-05-07 14:06:00,74.4,55.0,30.03,SSE,153,1.0,6.0,51,0.00,,,0.00,976,weatherlink.com 1.10,2013-05-07 19:06:00,
2013-05-07 14:21:00,73.7,52.0,30.02,SSE,167,0.0,8.0,47,0.00,,,0.00,577,weatherlink.com 1.10,2013-05-07 19:21:00,
2013-05-07 14:36:00,74.3,53.0,30.02,SSE,168,3.0,7.0,47,0.00,,,0.00,962,weatherlink.com 1.10,2013-05-07 19:36:00,
2013-05-07 14:51:00,74.6,53.0,30.01,SE,140,3.0,7.0,47,0.00,,,0.00,661,weatherlink.com 1.10,2013-05-07 19:51:00,
2013-05-07 15:06:00,74.9,52.0,30.00,SSE,155,1.0,7.0,45,0.00,,,0.00,800,weatherlink.com 1.10,2013-05-07 20:06:00,
2013-05-07 15:21:00,74.2,52.0,30.00,SSE,159,3.0,7.0,46,0.00,,,0.00,673,weatherlink.com 1.10,2013-05-07 20:21:00,
2013-05-07 15:36:00,74.6,52.0,30.00,South,169,0.0,8.0,45,0.00,,,0.00,636,weatherlink.com 1.10,2013-05-07 20:36:00,
2013-05-07 15:51:00,74.6,52.0,29.99,South,169,1.0,7.0,46,0.00,,,0.00,522,weatherlink.com 1.10,2013-05-07 20:51:00,
2013-05-07 16:06:00,74.4,52.0,29.98,South,169,2.0,6.0,46,0.00,,,0.00,554,weatherlink.com 1.10,2013-05-07 21:06:00,
2013-05-07 16:21:00,75.0,53.0,29.98,South,169,3.0,4.0,46,0.00,,,0.00,673,weatherlink.com 1.10,2013-05-07 21:21:00,
2013-05-07 16:36:00,75.4,52.0,29.98,South,169,0.0,4.0,44,0.00,,,0.00,624,weatherlink.com 1.10,2013-05-07 21:36:00,
2013-05-07 16:51:00,75.5,50.0,29.97,South,171,1.0,6.0,41,0.00,,,0.00,599,weatherlink.com 1.10,2013-05-07 21:51:00,
2013-05-07 17:06:00,74.9,49.0,29.97,South,171,2.0,5.0,40,0.00,,,0.00,522,weatherlink.com 1.10,2013-05-07 22:06:00,
2013-05-07 17:21:00,74.9,51.0,29.97,South,171,1.0,6.0,44,0.00,,,0.00,443,weatherlink.com 1.10,2013-05-07 22:21:00,
2013-05-07 17:36:00,75.0,52.0,29.97,South,171,2.0,5.0,44,0.00,,,0.00,510,weatherlink.com 1.10,2013-05-07 22:36:00,
2013-05-07 17:51:00,75.2,52.0,29.97,South,171,0.0,3.0,44,0.00,,,0.00,478,weatherlink.com 1.10,2013-05-07 22:51:00,
2013-05-07 18:06:00,75.6,51.0,29.96,South,172,1.0,6.0,43,0.00,,,0.00,413,weatherlink.com 1.10,2013-05-07 23:06:00,
2013-05-07 18:22:00,74.2,50.0,29.96,South,172,0.0,4.0,43,0.00,,,0.00,232,weatherlink.com 1.10,2013-05-07 23:22:00,
2013-05-07 18:37:00,73.5,51.0,29.95,South,169,1.0,5.0,45,0.00,,,0.00,271,weatherlink.com 1.10,2013-05-07 23:37:00,
2013-05-07 18:52:00,73.4,50.0,29.95,SE,142,2.0,8.0,44,0.00,,,0.00,125,weatherlink.com 1.10,2013-05-07 23:52:00,
2013-05-07 19:07:00,72.5,50.0,29.95,SE,142,2.0,4.0,45,0.00,,,0.00,104,weatherlink.com 1.10,2013-05-08 00:07:00,
2013-05-07 19:22:00,72.3,50.0,29.95,SE,142,1.0,4.0,46,0.00,,,0.00,88,weatherlink.com 1.10,2013-05-08 00:22:00,
2013-05-07 19:37:00,72.1,51.0,29.95,SE,142,0.0,3.0,47,0.00,,,0.00,76,weatherlink.com 1.10,2013-05-08 00:37:00,
2013-05-07 19:52:00,71.5,51.0,29.95,SE,142,0.0,1.0,49,0.00,,,0.00,35,weatherlink.com 1.10,2013-05-08 00:52:00,
2013-05-07 20:07:00,70.8,51.0,29.95,SE,142,0.0,1.0,50,0.00,,,0.00,14,weatherlink.com 1.10,2013-05-08 01:07:00,
2013-05-07 20:22:00,69.9,51.0,29.95,SE,142,0.0,1.0,52,0.00,,,0.00,0,weatherlink.com 1.10,2013-05-08 01:22:00,
2013-05-07 20:37:00,68.8,51.0,29.95,SE,142,0.0,1.0,53,0.00,,,0.00,0,weatherlink.com 1.10,2013-05-08 01:37:00,
2013-05-07 20:52:00,67.6,51.0,29.96,SE,142,0.0,2.0,55,0.00,,,0.00,0,weatherlink.com 1.10,2013-05-08 01:52:00,
2013-05-07 21:07:00,66.7,50.0,29.96,SE,142,0.0,1.0,55,0.00,,,0.00,0,weatherlink.com 1.10,2013-05-08 02:07:00,
2013-05-07 21:22:00,65.8,49.0,29.96,SE,142,0.0,2.0,56,0.00,,,0.00,0,weatherlink.com 1.10,2013-05-08 02:22:00,
2013-05-07 21:37:00,65.2,50.0,29.96,SE,142,0.0,1.0,58,0.00,,,0.00,0,weatherlink.com 1.10,2013-05-08 02:37:00,
2013-05-07 21:52:00,64.5,50.0,29.96,SE,142,0.0,1.0,60,0.00,,,0.00,0,weatherlink.com 1.10,2013-05-08 02:52:00,
2013-05-07 22:07:00,64.0,51.0,29.97,SE,142,0.0,1.0,62,0.00,,,0.00,0,weatherlink.com 1.10,2013-05-08 03:07:00,
2013-05-07 22:22:00,63.5,51.0,29.97,SE,142,0.0,1.0,64,0.00,,,0.00,0,weatherlink.com 1.10,2013-05-08 03:22:00,
2013-05-07 22:37:00,62.9,51.0,29.97,SE,142,0.0,1.0,66,0.00,,,0.00,0,weatherlink.com 1.10,2013-05-08 03:37:00,
2013-05-07 22:52:00,62.3,51.0,29.97,SE,142,0.0,1.0,67,0.00,,,0.00,0,weatherlink.com 1.10,2013-05-08 03:52:00,
2013-05-07 23:07:00,61.8,51.0,29.96,SE,142,0.0,2.0,69,0.00,,,0.00,0,weatherlink.com 1.10,2013-05-08 04:07:00,
2013-05-07 23:22:00,61.6,51.0,29.96,SE,142,0.0,2.0,69,0.00,,,0.00,0,weatherlink.com 1.10,2013-05-08 04:22:00,
2013-05-07 23:37:00,61.3,51.0,29.96,SE,142,1.0,2.0,69,0.00,,,0.00,0,weatherlink.com 1.10,2013-05-08 04:37:00,
2013-05-07 23:52:00,61.1,51.0,29.96,SE,142,0.0,2.0,69,0.00,,,0.00,0,weatherlink.com 1.10,2013-05-08 04:52:00,